Weather History for KSKX - May, 2013

Change the Weather History Date:

Tuesday, May 28, 2013

  Actual Average Record
Temperature  
Mean Temperature 56 °F -  
Max Temperature 77 °F 75 °F - (-1)
Min Temperature 35 °F 38 °F - (-1)
Degree Days  
Heating Degree Days 9    
Growing Degree Days 6 (Base 50)    
Moisture  
Dew Point 12 °F    
Average Humidity 17    
Maximum Humidity 28    
Minimum Humidity 11    
Precipitation  
Precipitation 0.00 in - - ()
Sea Level Pressure  
Sea Level Pressure 29.94 in    
Wind  
Wind Speed 7 mph (SW)    
Max Wind Speed 21 mph    
Max Gust Speed 31 mph    
Visibility 10 miles    
Events      
Averages and records for this station are not official NWS values.
T = Trace of Precipitation, MM = Missing Value Source: NWS Daily Summary

Daily Weather History Graph

Daily Weather History Graph

Search for Another Location

Airport or City:

Trip Planner

Search our weather history database for the weather conditions in past years. The results will help you decide how hot, cold, wet, or windy it might be!

Date:

Astronomy

May. 28, 2013 Rise Set
Actual Time 5:47 AM MDT 8:12 PM MDT
Civil Twilight 5:17 AM MDT 8:42 PM MDT
Nautical Twilight 4:41 AM MDT 9:19 PM MDT
Astronomical Twilight 4:00 AM MDT 9:59 PM MDT
Moon 11:42 PM MDT (5/28) 9:36 AM MDT (5/28)
Length of Visible Light 15h 24m
Length of Day
14h 25m
Waning Gibbous, 82% of the Moon is Illuminated
May 28
Waning Gibbous
May 31
Last Quarter
Jun 8
New
Jun 16
First Quarter
Jun 23
Full

Hourly Weather History & Observations

Time (MDT) Temp. Windchill Dew Point Humidity Pressure Visibility Wind Dir Wind Speed Gust Speed Precip Events Conditions
12:15 AM 50.0 °F - 3.2 °F 15% 30.03 in 10.0 mi SE 8.1 mph - N/A   Clear
12:35 AM 48.2 °F - 3.2 °F 16% 30.04 in 10.0 mi East 5.8 mph - N/A   Clear
12:55 AM 46.4 °F 44.3 °F 3.2 °F 17% 30.03 in 10.0 mi NE 4.6 mph - N/A   Clear
1:15 AM 46.4 °F 43.5 °F 5.0 °F 18% 30.02 in 10.0 mi ENE 5.8 mph - N/A   Clear
1:35 AM 41.0 °F - 1.4 °F 19% 30.02 in 10.0 mi Calm Calm - N/A   Clear
1:55 AM 39.2 °F - 3.2 °F 22% 30.01 in 10.0 mi Calm Calm - N/A   Clear
2:15 AM 39.2 °F 37.0 °F 3.2 °F 22% 30.01 in 10.0 mi ENE 3.5 mph - N/A   Clear
2:35 AM 42.8 °F 38.6 °F 8.6 °F 25% 30.01 in 10.0 mi ENE 6.9 mph - N/A   Clear
2:55 AM 41.0 °F 35.8 °F 8.6 °F 26% 30.02 in 10.0 mi SSE 8.1 mph - N/A   Clear
3:15 AM 42.8 °F 38.6 °F 8.6 °F 25% 30.01 in 10.0 mi ESE 6.9 mph - N/A   Clear
3:35 AM 42.8 °F 38.6 °F 8.6 °F 25% 30.01 in 10.0 mi East 6.9 mph - N/A   Clear
3:55 AM 39.2 °F 34.2 °F 6.8 °F 26% 30.01 in 10.0 mi East 6.9 mph - N/A   Clear
4:15 AM 35.6 °F - 1.4 °F 24% 30.02 in 10.0 mi Calm Calm - N/A   Clear
4:35 AM 37.4 °F - 5.0 °F 26% 30.02 in 10.0 mi Calm Calm - N/A   Clear
4:55 AM 39.2 °F 37.0 °F 8.6 °F 28% 30.01 in 10.0 mi North 3.5 mph - N/A   Clear
5:15 AM 39.2 °F 37.0 °F 8.6 °F 28% 30.01 in 10.0 mi North 3.5 mph - N/A   Clear
5:35 AM 41.0 °F 39.0 °F 6.8 °F 24% 30.01 in 10.0 mi North 3.5 mph - N/A   Clear
5:55 AM 39.2 °F 35.9 °F 6.8 °F 26% 30.01 in 10.0 mi North 4.6 mph - N/A   Clear
6:15 AM 37.4 °F 32.8 °F 5.0 °F 26% 30.01 in 10.0 mi North 5.8 mph - N/A   Clear
6:35 AM 39.2 °F 35.9 °F 6.8 °F 26% 30.01 in 10.0 mi North 4.6 mph - N/A   Clear
6:55 AM 42.8 °F 41.1 °F 6.8 °F 23% 30.01 in 10.0 mi NNW 3.5 mph - N/A   Clear
7:15 AM 46.4 °F 44.3 °F 8.6 °F 22% 30.01 in 10.0 mi North 4.6 mph - N/A   Clear
7:35 AM 51.8 °F - 12.2 °F 21% 30.00 in 10.0 mi Calm Calm - N/A   Clear
7:55 AM 55.4 °F - 15.8 °F 21% 30.00 in 10.0 mi Calm Calm - N/A   Clear
8:15 AM 57.2 °F - 15.8 °F 20% 30.00 in 10.0 mi NNW 5.8 mph - N/A   Clear
8:35 AM 57.2 °F - 15.8 °F 20% 30.00 in 10.0 mi Calm Calm - N/A   Clear
8:55 AM 60.8 °F - 15.8 °F 17% 29.99 in 10.0 mi Calm Calm - N/A   Clear
9:15 AM 62.6 °F - 15.8 °F 16% 29.99 in 10.0 mi West 5.8 mph - N/A   Clear
9:35 AM 64.4 °F - 17.6 °F 16% 29.99 in 10.0 mi Calm Calm - N/A   Clear
9:55 AM 66.2 °F - 17.6 °F 15% 29.98 in 10.0 mi West 3.5 mph - N/A   Clear
10:15 AM 66.2 °F - 17.6 °F 15% 29.98 in 10.0 mi NE 3.5 mph - N/A   Clear
10:35 AM 69.8 °F - 17.6 °F 14% 29.97 in 10.0 mi West 6.9 mph - N/A   Clear
10:55 AM 69.8 °F - 17.6 °F 14% 29.97 in 10.0 mi WSW 4.6 mph - N/A   Clear
11:15 AM 69.8 °F - 17.6 °F 14% 29.96 in 10.0 mi Calm Calm - N/A   Clear
11:35 AM 71.6 °F - 17.6 °F 13% 29.95 in 10.0 mi SW 6.9 mph - N/A   Clear
11:55 AM 71.6 °F - 17.6 °F 13% 29.95 in 10.0 mi SSW 10.4 mph - N/A   Clear
12:15 PM 73.4 °F - 17.6 °F 12% 29.94 in 10.0 mi SW 8.1 mph 23.0 mph N/A   Clear
12:35 PM 75.2 °F - 17.6 °F 11% 29.93 in 10.0 mi WSW 18.4 mph 23.0 mph N/A   Clear
12:55 PM 73.4 °F - 17.6 °F 12% 29.92 in 10.0 mi SW 8.1 mph 26.5 mph N/A   Clear
1:15 PM 75.2 °F - 17.6 °F 11% 29.91 in 10.0 mi SW 20.7 mph 28.8 mph N/A   Clear
1:35 PM 75.2 °F - 17.6 °F 11% 29.90 in 10.0 mi SW 20.7 mph 25.3 mph N/A   Clear
1:55 PM 75.2 °F - 15.8 °F 11% 29.90 in 10.0 mi SSW 16.1 mph 24.2 mph N/A   Clear
2:15 PM 75.2 °F - 15.8 °F 11% 29.89 in 10.0 mi SW 10.4 mph 20.7 mph N/A   Clear
2:35 PM 75.2 °F - 17.6 °F 11% 29.88 in 9.0 mi South 6.9 mph 23.0 mph N/A   Clear
2:55 PM 75.2 °F - 17.6 °F 11% 29.87 in 8.0 mi West 13.8 mph 29.9 mph N/A   Clear
3:15 PM 75.2 °F - 15.8 °F 11% 29.87 in 10.0 mi SW 18.4 mph 27.6 mph N/A   Clear
3:35 PM 75.2 °F - 17.6 °F 11% 29.86 in 10.0 mi SSW 12.7 mph 27.6 mph N/A   Clear
3:55 PM 77.0 °F - 17.6 °F 11% 29.85 in 10.0 mi WSW 12.7 mph 31.1 mph N/A   Clear
4:15 PM 75.2 °F - 15.8 °F 11% 29.84 in 10.0 mi WSW 17.3 mph 26.5 mph N/A   Clear
4:35 PM 75.2 °F - 15.8 °F 11% 29.84 in 9.0 mi SSW 20.7 mph 31.1 mph N/A   Clear
4:55 PM 75.2 °F - 17.6 °F 11% 29.83 in 7.0 mi West 16.1 mph 31.1 mph N/A   Clear
5:15 PM 75.2 °F - 17.6 °F 11% 29.83 in 10.0 mi West 16.1 mph 21.9 mph N/A   Clear
5:35 PM 75.2 °F - 15.8 °F 11% 29.82 in 10.0 mi WSW 18.4 mph 21.9 mph N/A   Clear
5:55 PM 75.2 °F - 17.6 °F 11% 29.82 in 10.0 mi SW 16.1 mph 25.3 mph N/A   Clear
6:15 PM 73.4 °F - 15.8 °F 11% 29.81 in 10.0 mi WSW 13.8 mph - N/A   Clear
6:35 PM 71.6 °F - 14.0 °F 11% 29.81 in 10.0 mi SW 11.5 mph - N/A   Clear
10:15 PM 51.8 °F - -0.4 °F 12% 29.85 in 10.0 mi East 4.6 mph - N/A   Unknown
10:35 PM 50.0 °F - 1.4 °F 14% 29.85 in 10.0 mi East 6.9 mph - N/A   Clear
10:55 PM 48.2 °F - 1.4 °F 15% 29.86 in 10.0 mi East 8.1 mph - N/A   Clear
11:15 PM 51.8 °F - 5.0 °F 15% 29.86 in 10.0 mi ESE 6.9 mph - N/A   Clear
11:35 PM 50.0 °F - 6.8 °F 17% 29.85 in 10.0 mi East 8.1 mph - N/A   Partly Cloudy
11:55 PM 51.8 °F - 6.8 °F 16% 29.85 in 10.0 mi ESE 9.2 mph - N/A   Partly Cloudy